Regional Weather Roundup
Issued by NWS Charleston, SC

Current Version | Previous Version | Text Only | Print | Product List | Glossary Off
Versions: 1 2 3 4 5 6 7 8 9 10 11 12 13 14 15 16 17 18 19 20 21 22 23 24 25 26 27 28 29 30 31 32 33 34 35 36 37 38 39 40 41 42 43 44 45 46 47 48 49 50

000
ASUS42 KCHS 160625
RWRCHS

REGIONAL WEATHER ROUNDUP
NATIONAL WEATHER SERVICE CHARLESTON SC
200 AM EDT WED APR 16 2014

NOTE: "FAIR" INDICATES FEW OR NO CLOUDS BELOW 12,000 FEET WITH NO
SIGNIFICANT WEATHER AND/OR OBSTRUCTIONS TO VISIBILITY.

NOT ALL STATIONS ARE QUALITY CONTROLLED BY THE NATIONAL
WEATHER SERVICE. USE DATA WITH CAUTION...ESPECIALLY
DEWPOINT OBSERVATIONS.

SCZ027-030-031-034>040-042>050-160700-
...SOUTH CAROLINA...

CITY           SKY/WX    TMP DP  RH WIND       PRES   REMARKS
N CHARLESTON   MOCLDY    51  38  60 N18G26    30.04R
6HR MIN TEMP:  51; 6HR MAX TEMP:  68;

WATERFRONT PRK   N/A     54 N/A N/A N17G25      N/A
FORT JOHNSON     N/A     50  45  81 N10G17    30.08R
MOUNT PLEASANT FAIR     N/A N/A N/A N8        30.05R
JOHNS ISLAND   MOCLDY    52  41  66 N16G22    30.04R
PINOPOLIS        N/A     52  41  66 N23       29.97R
MONCKS CORNER  FAIR      50  41  71 N14G21    30.05R
SUMMERVILLE    FAIR      48  36  61 N15G26    30.07R
BEAUFORT MCAS  CLOUDY    53  42  66 N14       30.03R
6HR MIN TEMP:  53; 6HR MAX TEMP:  63;

BEAUFORT ARPT  CLOUDY    54  45  71 NW12      30.03R
HILTON HEAD IS MOCLDY    52  43  71 NW8       30.04R
GEORGETOWN     NOT AVBL
WALTERBORO     CLOUDY    50  41  71 N7G17     30.07R
ORANGEBURG     FAIR      47  34  60 N9G21     30.08R
6HR MIN TEMP:  47; 6HR MAX TEMP:  64;

BARNWELL       FAIR      43  34  70 N8        30.11R
AIKEN          FAIR      39  32  75 N5        30.14R WCI  36
MANNING        FAIR      45  36  70 N15G22    30.09R
KINGSTREE      NOT AVBL
COLUMBIA       FAIR      45  31  58 N8        30.10R
6HR MIN TEMP:  45; 6HR MAX TEMP:  59;

SUMTER         FAIR      42  29  58 N13       30.08R
6HR MIN TEMP:  42; 6HR MAX TEMP:  57; 6HR PCP: TRACE;

FLORENCE       FAIR      43  30  60 N14       30.07R
6HR MIN TEMP:  43; 6HR MAX TEMP:  53;

MYRTLE BEACH   FAIR      45  32  61 N13G23    30.04R
N MYRTLE BEACH FAIR      45  34  65 N13       30.00R
6HR MIN TEMP:  45; 6HR MAX TEMP:  59; 6HR PCP:  0.31;


$$

GAZ063-065-086>088-099>101-113>116-118-119-134-136>141-150-160700-
...GEORGIA...

CITY           SKY/WX    TMP DP  RH WIND       PRES   REMARKS
SAVANNAH ARPT  FAIR      48  37  65 NW12      30.05R
6HR MIN TEMP:  48; 6HR MAX TEMP:  59;

HUNTER AAF     FAIR      47  38  68 NW12      30.03R
6HR MIN TEMP:  47; 6HR MAX TEMP:  58;

FORT STEWART   FAIR      46  38  74 NW9       30.05R
6HR MIN TEMP:  46; 6HR MAX TEMP:  57;

STATESBORO     NOT AVBL
SYLVANIA       FAIR      47  38  70 N7        30.10R
CLAXTON        FAIR      45  37  76 NW6       30.10R
THOMSON        FAIR      35  35 100 CALM      30.17R
AUGUSTA-BUSH   FAIR      43  28  55 N9        30.11R
6HR MIN TEMP:  42; 6HR MAX TEMP:  57;

AUGUSTA-DANIEL FAIR      43  28  55 N10       30.11R
SWAINSBORO     FAIR      41  34  75 N3        30.11R
VIDALIA        FAIR      43  34  70 NW8       30.10R
ALMA           FAIR      44  32  62 N13       30.08S
6HR MIN TEMP:  44; 6HR MAX TEMP:  52;

WAYCROSS       NOT AVBL
JESUP          FAIR      43  37  81 NW8       30.08R
BRUNSWICK      FAIR      46  37  71 W7        30.06S
SAINT SIMONS   FAIR      48  38  68 NW9       30.04S
6HR MIN TEMP:  48; 6HR MAX TEMP:  60; 6HR PCP: TRACE;


$$

SCZ027-028-034-036>038-045-046-048>050-GAZ119-141-160700-
...LAKE AND SUPPLEMENTAL COASTAL OBSERVATIONS...

STATION/POSITION TIME  TEMP    WIND        PRES    WAVE   SWELL
                       AIR SEA DIR/SP/G            HT/PER HT/PER/DIR
                 (UTC) (F)     (DEG/KT/KT) (MB)    (FT/S) (FT/S/D)
UPR LAKE MARION  NOT AVBL
WINYAH BAY       0600   48     330/  9     1016.0R
LAKE MURRAY      0600   42     340/  4/  8 1019.0R
ACE BASIN NERRS  0600   55      20/  5     1016.0S
FORT PULASKI     0600   49 61  300/ 14/ 17 1017.1R
SAPELO ISLAND    0600   48     320/ 12     1017.0S

$$

ANZ086-088-AMZ330-350-352-354-374-454-470-160700-
...C-MAN AND BUOY OBSERVATIONS...

STATION/POSITION TIME  TEMP    WIND        PRES    WAVE   SWELL
                       AIR SEA DIR/SP/G            HT/PER HT/PER/DIR
                 (UTC) (F)     (DEG/KT/KT) (MB)    (FT/S) (FT/S/D)
FOLLY BEACH CMAN 0600   51      10/ 15/ 17 1017.3R
BUOY 41004       NOT AVBL
BUOY 41008       0600   54 65  330/ 21/ 25 1016.3R   4/ 4   2/110/ 8
5E ST. MARYS GA  0600      65                N/A     4/ 4
FRYING PAN BUOY  0600   52 66  350/ 29/ 35 1013.6R   9/ 6
BUOY 41025       NOT AVBL
CAPE LOOKOUT NC  0600   47     360/ 29/ 36 1013.5R
BUOY 41002       NOT AVBL
BUOY 41010       0600   76 76  200/ 16/ 25 1012.0F   5/ 8   2/100/16
BUOY 41012       NOT AVBL
ST AUGUSTINE FL  0600   50     330/ 15/ 21 1017.4R


$$



USA.gov is the U.S. government's official web portal to all federal, state and local government web resources and services.